Flag for Germany Weather past 2 weeks in Frankfurt, Hesse, Germany

Now
84 °F

Scattered clouds.


Feels Like: 85 °F
Forecast: 64 / 80 °F
Wind: 20 mph from Northwest

Location: Frankfurt-M-Flughafen Airport

Current Time: Jul 5, 2015 at 9:35:40 PM

Latest Report: Jul 5, 2015 at 8:50 PM


Visibility: N/A

Pressure: 29.86 "Hg

Humidity: 48%

Dew point: 63 °F

Location of FrankfurtLocation

Historic Weather in Frankfurt — Graph

°F

Frankfurt temperature yesterday

Maximum temperature yesterday: 100 °F (at 4:50 PM)
Minimum temperature yesterday: 75 °F (at 2:20 AM)
Average temperature yesterday: 86 °F

Past Weeks' High & Low Weather Summary

 TemperatureHumidityPressure
High100 °F (Jul 4, 4:50 PM)100% (Jun 21, 11:50 PM)30.21 "Hg (Jun 21, 11:50 PM)
Low48 °F (Jun 23, 4:50 AM)20% (Jun 30, 4:50 PM)29.68 "Hg (Jun 22, 10:50 PM)
Average70 °F63%30.08 "Hg
* Reported Jun 20 8:20 PM — Jul 5 8:20 PM, Frankfurt, Weather by CustomWeather, © 2015

Note: Actual official high and low records may vary slightly from our data, if they occured in-between our weather recording intervals... More about our weather records

Advertising

Frankfurt weather history for previous 24 hours

 ConditionsComfort  
Time TempWeatherWind HumidityBarometerVisibility
8:20 PM
Sun, Jul 5
90 °FPassing clouds.20 mph41%29.86 "HgN/A
7:50 PM99 °FSunny.13 mph21%29.83 "Hg10 mi
7:20 PM99 °FSunny.14 mph22%29.83 "Hg10 mi
6:50 PM100 °FSunny.13 mph21%29.83 "Hg10 mi
6:20 PM100 °FPassing clouds.15 mph20%29.83 "HgN/A
5:50 PM100 °FSunny.15 mph21%29.86 "Hg10 mi
5:20 PM100 °FPassing clouds.15 mph24%29.86 "HgN/A
4:50 PM99 °FPassing clouds.14 mph25%29.86 "HgN/A
4:20 PM99 °FScattered clouds.10 mph27%29.89 "HgN/A
3:50 PM97 °FThunderstorms. Scattered clouds.15 mph27%29.89 "HgN/A
3:20 PM100 °FPassing clouds.14 mph21%29.92 "HgN/A
2:50 PM99 °FPassing clouds.10 mph27%29.92 "HgN/A
2:20 PM99 °FPassing clouds.9 mph29%29.95 "HgN/A
1:50 PM97 °FPassing clouds.12 mph28%29.95 "HgN/A
1:20 PM97 °FPassing clouds.10 mph28%29.95 "HgN/A
12:50 PM95 °FPassing clouds.8 mph34%29.98 "HgN/A
12:20 PM93 °FSunny.5 mph34%29.98 "Hg10 mi
11:50 AM91 °FPassing clouds.5 mph36%29.98 "HgN/A
11:20 AM91 °FSunny.3 mph38%30.01 "Hg10 mi
10:50 AM88 °FPassing clouds.6 mph40%30.01 "HgN/A
10:20 AM86 °FSunny.8 mph46%30.01 "Hg10 mi
9:50 AM84 °FScattered clouds.9 mph48%30.01 "HgN/A
9:20 AM84 °FSunny.9 mph51%30.01 "Hg10 mi
8:50 AM82 °FSunny.8 mph55%30.04 "Hg10 mi
8:20 AM81 °FPassing clouds.6 mph58%30.04 "HgN/A
7:50 AM77 °FSunny.6 mph69%30.04 "Hg10 mi
7:20 AM77 °FPassing clouds.5 mph65%30.04 "HgN/A
6:50 AM75 °FSunny.5 mph69%30.04 "Hg10 mi
6:20 AM75 °FPassing clouds.3 mph69%30.04 "HgN/A
5:50 AM72 °FPassing clouds.3 mph78%30.04 "HgN/A
5:20 AM72 °FClear.8 mph78%30.04 "Hg10 mi
4:50 AM73 °FScattered showers. Passing clouds.3 mph74%30.07 "HgN/A
4:20 AM73 °FClear.1 mph74%30.07 "Hg10 mi
3:50 AM77 °FClear.2 mph61%30.07 "Hg10 mi
3:20 AM77 °FClear.2 mph61%30.07 "Hg10 mi
2:50 AM75 °FPassing clouds.3 mph65%30.07 "HgN/A
2:20 AM75 °FClear.5 mph69%30.07 "Hg10 mi
1:50 AM75 °FClear.3 mph69%30.07 "Hg10 mi
1:20 AM75 °FClear.1 mph69%30.07 "Hg10 mi
12:50 AM75 °FClear.1 mph69%30.07 "Hg10 mi
12:20 AM75 °FClear.6 mph65%30.07 "Hg10 mi
11:50 PM
Sat, Jul 4
77 °FClear.1 mph61%30.07 "Hg10 mi
11:20 PM79 °FPassing clouds.3 mph58%30.07 "HgN/A
10:50 PM81 °FClear.3 mph54%30.07 "Hg10 mi
10:20 PM81 °FSunny.2 mph54%30.07 "Hg10 mi
9:50 PM84 °FPassing clouds.2 mph45%30.07 "HgN/A
9:20 PM90 °FPartly sunny.6 mph36%30.07 "HgN/A
Weather by CustomWeather, © 2015

See weather overviewHow to use our weather pages